Powrót do katalogu

STARLINK-34205

AktywnyŁącznośćVLEO
NORAD 64741·PAYLOAD·🇺🇸 United States

Wystrzelony Jul 2, 2025 z Cape Canaveral Space Force Station

Loading…

Następne Przeloty (najbliższe 24 godziny)

TLE

ŚwieżeSource: CelesTrak SupGP

Epoka: Sep 15, 2026, 03:52 UTC

1 64741C 25144T   26258.16159722  .00061121  00000+0  18054-2 0  2582
2 64741  53.1607  18.4055 0001106  81.0591  37.2401 15.34368522    18

Śledź STARLINK-34205 w czasie rzeczywistym z AllMySat

Download on the App Store